SBI0325 UNNT-UNWW

Flight info

Callsign SBI0325
Flight time 0h 36m
Altitude 25000
Route OGATI1K OGATI A308 ARBAR G117 RODMI RODMI1P
Aircraft A319/M-SDE3FGHIRWY/LB1

Departure

Time 2026-04-30 14:41
Airport Novosibirsk Tolmachevo Airport (UNNT)

Arrival

Time 2026-04-30 15:18
Airport Spichenkovo Airport (UNWW)
Time Latitude Longitude Altitude Speed Heading
2026-04-30 14:19 55.01072 82.66399 377 ft 0 kts 172°
2026-04-30 14:35 55.01050 82.66415 374 ft 6 kts 129°
2026-04-30 14:35 55.01055 82.66522 374 ft 12 kts 70°
2026-04-30 14:35 55.01098 82.66651 374 ft 13 kts 20°
2026-04-30 14:36 55.01194 82.66637 375 ft 14 kts 352°
2026-04-30 14:36 55.01260 82.66619 375 ft 0 kts 349°
2026-04-30 14:36 55.01260 82.66618 375 ft 0 kts 349°
2026-04-30 14:37 55.01280 82.66613 375 ft 6 kts 351°
2026-04-30 14:37 55.01347 82.66583 375 ft 12 kts 324°
2026-04-30 14:37 55.01369 82.66468 374 ft 0 kts 264°
2026-04-30 14:40 55.01369 82.66464 374 ft 1 kts 264°
2026-04-30 14:40 55.01340 82.66117 375 ft 68 kts 261°
2026-04-30 14:41 55.01226 82.64858 375 ft 138 kts 262°
2026-04-30 14:41 55.01074 82.62929 650 ft 169 kts 261°
2026-04-30 14:41 55.00911 82.60880 1241 ft 181 kts 260°
2026-04-30 14:41 55.00708 82.58754 2062 ft 180 kts 258°
2026-04-30 14:42 55.00489 82.56592 2652 ft 192 kts 258°
2026-04-30 14:42 55.00263 82.54144 2963 ft 217 kts 263°
2026-04-30 14:42 55.00553 82.51457 2903 ft 237 kts 302°
2026-04-30 14:42 55.01802 82.49595 2978 ft 244 kts 338°
2026-04-30 14:43 55.03507 82.49227 3280 ft 265 kts 13°
2026-04-30 14:43 55.05122 82.50759 4048 ft 273 kts 49°
2026-04-30 14:43 55.05956 82.53642 5011 ft 272 kts 83°
2026-04-30 14:43 55.05893 82.56927 5893 ft 274 kts 99°
2026-04-30 14:44 55.05572 82.60175 6666 ft 280 kts 102°
2026-04-30 14:44 55.05213 82.63550 7450 ft 286 kts 102°
2026-04-30 14:44 55.04868 82.66933 8238 ft 290 kts 101°
2026-04-30 14:44 55.04532 82.70433 9039 ft 296 kts 100°
2026-04-30 14:45 55.04209 82.73933 9833 ft 300 kts 100°
2026-04-30 14:45 55.03883 82.77536 10574 ft 305 kts 99°
2026-04-30 14:45 55.03548 82.81286 11039 ft 322 kts 99°
2026-04-30 14:45 55.03223 82.84953 11393 ft 337 kts 99°
2026-04-30 14:46 55.02847 82.89146 11755 ft 355 kts 99°
2026-04-30 14:46 55.02460 82.93497 12192 ft 368 kts 98°
2026-04-30 14:46 55.02085 82.97706 12851 ft 372 kts 99°
2026-04-30 14:46 55.01695 83.02065 13543 ft 374 kts 99°
2026-04-30 14:47 55.01293 83.06504 14172 ft 379 kts 98°
2026-04-30 14:47 55.00881 83.11039 14814 ft 384 kts 98°
2026-04-30 14:47 55.00460 83.15681 15478 ft 389 kts 98°
2026-04-30 14:47 55.00043 83.20267 16131 ft 393 kts 98°
2026-04-30 14:48 54.99611 83.24992 16796 ft 397 kts 98°
2026-04-30 14:48 54.99161 83.29906 17457 ft 401 kts 98°
2026-04-30 14:48 54.98721 83.34671 18088 ft 404 kts 98°
2026-04-30 14:48 54.98274 83.39500 18845 ft 404 kts 98°
2026-04-30 14:49 54.97834 83.44244 19618 ft 401 kts 98°
2026-04-30 14:49 54.97389 83.49030 20349 ft 401 kts 98°
2026-04-30 14:49 54.96941 83.53805 21063 ft 400 kts 98°
2026-04-30 14:49 54.96496 83.58534 21770 ft 400 kts 98°
2026-04-30 14:50 54.95593 83.68062 23183 ft 398 kts 99°
2026-04-30 14:50 54.95141 83.72800 23851 ft 398 kts 99°
2026-04-30 14:51 54.94224 83.82331 24972 ft 405 kts 99°
2026-04-30 14:51 54.93761 83.87106 25259 ft 407 kts 98°
2026-04-30 14:51 54.92815 83.96805 25357 ft 407 kts 98°
2026-04-30 14:52 54.92339 84.01663 25261 ft 407 kts 98°
2026-04-30 14:52 54.91396 84.11218 25193 ft 406 kts 98°
2026-04-30 14:52 54.90932 84.15893 25173 ft 405 kts 98°
2026-04-30 14:53 54.89975 84.25484 25118 ft 405 kts 98°
2026-04-30 14:53 54.89484 84.30378 25126 ft 405 kts 98°
2026-04-30 14:54 54.88516 84.39960 25153 ft 406 kts 98°
2026-04-30 14:54 54.87527 84.49642 25185 ft 406 kts 98°
2026-04-30 14:55 54.86536 84.59258 25186 ft 405 kts 98°
2026-04-30 14:55 54.86041 84.64050 25186 ft 405 kts 97°
2026-04-30 14:55 54.85375 84.73756 25189 ft 404 kts 93°
2026-04-30 14:56 54.84878 84.83493 25190 ft 404 kts 93°
2026-04-30 14:56 54.84365 84.93188 25189 ft 405 kts 95°
2026-04-30 14:57 54.83707 84.97982 25181 ft 408 kts 111°
2026-04-30 14:57 54.80434 85.05913 25191 ft 408 kts 133°
2026-04-30 14:58 54.76559 85.13081 24697 ft 411 kts 133°
2026-04-30 14:58 54.74631 85.16670 24185 ft 412 kts 133°
2026-04-30 14:58 54.70764 85.23928 23057 ft 415 kts 133°
2026-04-30 14:59 54.66863 85.31280 21742 ft 414 kts 133°
2026-04-30 15:00 54.61093 85.42130 19940 ft 409 kts 133°
2026-04-30 15:00 54.57277 85.49276 18733 ft 407 kts 132°
2026-04-30 15:01 54.53469 85.56398 17498 ft 405 kts 132°
2026-04-30 15:01 54.51565 85.59945 17013 ft 400 kts 132°
2026-04-30 15:01 54.47848 85.66873 16072 ft 392 kts 133°
2026-04-30 15:02 54.45995 85.70320 15599 ft 389 kts 133°
2026-04-30 15:02 54.44166 85.73715 15128 ft 385 kts 133°
2026-04-30 15:03 54.38808 85.83620 13736 ft 375 kts 133°
2026-04-30 15:03 54.35297 85.90080 12808 ft 369 kts 133°
2026-04-30 15:04 54.31834 85.96432 11876 ft 362 kts 133°
2026-04-30 15:04 54.26767 86.05692 10753 ft 343 kts 133°
2026-04-30 15:05 54.22149 86.14100 10353 ft 306 kts 133°
2026-04-30 15:06 54.19345 86.19199 9943 ft 292 kts 133°
2026-04-30 15:06 54.16587 86.24201 9257 ft 289 kts 133°
2026-04-30 15:07 54.13853 86.29153 8591 ft 285 kts 133°
2026-04-30 15:07 54.11528 86.34498 7937 ft 280 kts 113°
2026-04-30 15:08 54.10121 86.40592 7307 ft 276 kts 109°
2026-04-30 15:08 54.08107 86.49638 6354 ft 270 kts 110°
2026-04-30 15:09 54.06770 86.55543 5727 ft 266 kts 110°
2026-04-30 15:09 54.05438 86.61377 5102 ft 262 kts 110°
2026-04-30 15:10 54.04118 86.67128 4476 ft 259 kts 111°
2026-04-30 15:11 54.01677 86.77705 4138 ft 216 kts 111°
2026-04-30 15:11 54.00602 86.82380 4042 ft 205 kts 110°
2026-04-30 15:12 53.99209 86.88923 3539 ft 197 kts 110°
2026-04-30 15:13 53.98277 86.93304 2975 ft 197 kts 110°
2026-04-30 15:14 53.94050 86.95837 2495 ft 190 kts 201°
2026-04-30 15:14 53.90353 86.93416 2485 ft 191 kts 199°
2026-04-30 15:16 53.84921 86.90113 1539 ft 135 kts 199°
2026-04-30 15:17 53.81500 86.88025 1029 ft 85 kts 198°
2026-04-30 15:18 53.80226 86.86994 1029 ft 16 kts 332°
2026-04-30 15:19 53.80433 86.86729 1029 ft 9 kts 10°